This is the latest recevied weather packets stored in our database for station/object SM6LNJ-13. If no packets are shown the sender has not sent any weather packets the latest 10 day(s).
| Time | Temp. | Humidity | Pressure | Rain* | Wind** | Luminosity | Snow |
|---|---|---|---|---|---|---|---|
| 1777542587 | 11.11° C | 84% | 1421.5 hPa | 0 mm | - | - | - |
| 1777542465 | 11.11° C | 84% | 1421.3 hPa | 0 mm | - | - | - |
| 1777542346 | 10.56° C | 84% | 1421.1 hPa | 0 mm | - | - | - |
| 1777542226 | 11.11° C | 84% | 1421.2 hPa | 0 mm | - | - | - |
| 1777541987 | 10.56° C | 84% | 1420.7 hPa | 0 mm | - | - | - |
| 1777539706 | 10.56° C | 85% | 1420.9 hPa | 0 mm | - | - | - |
| 1777539346 | 10.56° C | 85% | 1420.9 hPa | 0 mm | - | - | - |
| 1777539227 | 11.11° C | 85% | 1421.2 hPa | 0 mm | - | - | - |
| 1777538626 | 10.56° C | 85% | 1420.6 hPa | 0 mm | - | - | - |
| 1777514266 | 6.67° C | 94% | 1415.1 hPa | 0 mm | - | - | - |
| 1777495306 | 6.67° C | 91% | 1414.9 hPa | 0 mm | - | - | - |
| 1777491826 | 7.22° C | 90% | 1416 hPa | 0 mm | - | - | - |
| 1777484633 | 8.33° C | 87% | 1415.4 hPa | 0 mm | - | - | - |
| 1777481626 | 8.89° C | 84% | 1417.1 hPa | 0 mm | - | - | - |
| 1777481386 | 8.89° C | 84% | 1417 hPa | 0 mm | - | - | - |
| 1777481266 | 8.89° C | 84% | 1417 hPa | 0 mm | - | - | - |
| 1777481026 | 8.89° C | 84% | 1417.2 hPa | 0 mm | - | - | - |
| 1777480906 | 8.89° C | 84% | 1416.8 hPa | 0 mm | - | - | - |
| 1777480786 | 8.89° C | 83% | 1416.6 hPa | 0 mm | - | - | - |
| 1777480666 | 8.89° C | 83% | 1416.7 hPa | 0 mm | - | - | - |
| 1777480546 | 8.89° C | 83% | 1416.9 hPa | 0 mm | - | - | - |
| 1777480306 | 8.89° C | 83% | 1416.5 hPa | 0 mm | - | - | - |
| 1777480186 | 8.89° C | 82% | 1416.6 hPa | 0 mm | - | - | - |
| 1777480066 | 8.89° C | 82% | 1416.9 hPa | 0 mm | - | - | - |
| 1777479946 | 8.89° C | 82% | 1416.9 hPa | 0 mm | - | - | - |
* Rain latest hour (hover to see other rain measurements)
** Current wind speed in m/s (hover to see current wind gust speed)